Time,TemperatureF,DewpointF,PressureIn,WindDirection,WindDirectionDegrees,WindSpeedMPH,WindSpeedGustMPH,Humidity,HourlyPrecipIn,Conditions,Clouds,dailyrainin,SoftwareType,DateUTC
2013-09-20 00:14:00,64.0,61.0,30.16,WNW,292,0.0,1.0,91,0.00,,,0.00,,2013-09-20 04:14:00,
2013-09-20 00:24:00,64.0,61.0,30.16,WSW,255,0.0,4.0,90,0.00,,,0.00,,2013-09-20 04:24:00,
2013-09-20 00:44:00,64.0,61.0,30.16,WSW,255,0.0,1.0,90,0.00,,,0.00,,2013-09-20 04:44:00,
2013-09-20 00:54:00,64.0,61.0,30.16,WSW,255,0.0,1.0,90,0.00,,,0.00,,2013-09-20 04:54:00,
2013-09-20 01:13:00,64.0,61.0,30.16,WSW,255,0.0,0.0,90,0.00,,,0.00,,2013-09-20 05:13:00,
2013-09-20 01:23:00,64.0,61.0,30.16,WSW,255,0.0,0.0,90,0.00,,,0.00,,2013-09-20 05:23:00,
2013-09-20 01:53:00,63.0,60.0,30.16,WSW,255,0.0,0.0,91,0.00,,,0.00,,2013-09-20 05:53:00,
2013-09-20 02:12:00,62.0,60.0,30.16,WSW,255,0.0,0.0,92,0.00,,,0.00,,2013-09-20 06:12:00,
2013-09-20 02:22:00,62.0,60.0,30.16,WSW,255,0.0,0.0,92,0.00,,,0.00,,2013-09-20 06:22:00,
2013-09-20 02:52:00,61.0,59.0,30.15,WSW,255,0.0,0.0,93,0.00,,,0.00,,2013-09-20 06:52:00,
2013-09-20 03:12:00,61.0,59.0,30.15,WSW,255,0.0,0.0,93,0.00,,,0.00,,2013-09-20 07:12:00,
2013-09-20 03:23:00,61.0,59.0,30.14,WSW,255,0.0,0.0,93,0.00,,,0.00,,2013-09-20 07:23:00,
2013-09-20 03:42:00,61.0,59.0,30.14,WSW,255,0.0,1.0,93,0.00,,,0.00,,2013-09-20 07:42:00,
2013-09-20 03:53:00,60.0,58.0,30.14,WSW,255,0.0,0.0,94,0.00,,,0.00,,2013-09-20 07:53:00,
2013-09-20 04:11:00,60.0,58.0,30.14,WSW,255,0.0,0.0,94,0.00,,,0.00,,2013-09-20 08:11:00,
2013-09-20 04:22:00,60.0,58.0,30.14,WSW,255,0.0,0.0,94,0.00,,,0.00,,2013-09-20 08:22:00,
2013-09-20 04:52:00,60.0,59.0,30.14,WSW,255,0.0,0.0,95,0.00,,,0.00,,2013-09-20 08:52:00,
2013-09-20 05:22:00,60.0,59.0,30.14,WSW,255,0.0,0.0,95,0.00,,,0.00,,2013-09-20 09:22:00,
2013-09-20 05:43:00,59.0,58.0,30.14,WSW,255,0.0,0.0,95,0.00,,,0.00,,2013-09-20 09:43:00,
2013-09-20 05:53:00,59.0,58.0,30.14,WSW,255,0.0,0.0,96,0.00,,,0.00,,2013-09-20 09:53:00,
2013-09-20 06:13:00,59.0,58.0,30.14,WSW,255,0.0,0.0,95,0.00,,,0.00,,2013-09-20 10:13:00,
2013-09-20 06:23:00,59.0,58.0,30.14,WSW,255,0.0,0.0,95,0.00,,,0.00,,2013-09-20 10:23:00,
2013-09-20 06:42:00,59.0,58.0,30.14,WSW,255,0.0,0.0,95,0.00,,,0.00,,2013-09-20 10:42:00,
2013-09-20 06:53:00,59.0,58.0,30.14,WSW,255,0.0,0.0,95,0.00,,,0.00,,2013-09-20 10:53:00,
2013-09-20 07:12:00,58.0,57.0,30.14,WSW,255,0.0,0.0,95,0.00,,,0.00,,2013-09-20 11:12:00,
2013-09-20 07:23:00,58.0,57.0,30.14,WSW,255,0.0,0.0,95,0.00,,,0.00,,2013-09-20 11:23:00,
2013-09-20 07:42:00,58.0,57.0,30.14,WSW,255,0.0,0.0,96,0.00,,,0.00,,2013-09-20 11:42:00,
2013-09-20 07:52:00,58.0,57.0,30.14,WSW,255,0.0,0.0,96,0.00,,,0.00,,2013-09-20 11:52:00,
2013-09-20 08:12:00,58.0,57.0,30.15,WSW,255,0.0,0.0,96,0.00,,,0.00,,2013-09-20 12:12:00,
2013-09-20 08:22:00,58.0,57.0,30.14,WSW,255,0.0,0.0,96,0.00,,,0.00,,2013-09-20 12:22:00,
2013-09-20 08:43:00,58.0,57.0,30.14,WSW,255,0.0,0.0,96,0.00,,,0.00,,2013-09-20 12:43:00,
2013-09-20 08:52:00,58.0,57.0,30.14,WSW,255,0.0,0.0,97,0.00,,,0.00,,2013-09-20 12:52:00,
2013-09-20 09:12:00,59.0,58.0,30.14,WSW,255,0.0,0.0,97,0.00,,,0.00,,2013-09-20 13:12:00,
2013-09-20 09:22:00,60.0,59.0,30.14,WSW,255,0.0,0.0,97,0.00,,,0.00,,2013-09-20 13:22:00,
2013-09-20 09:42:00,60.0,59.0,30.14,WSW,255,0.0,0.0,97,0.00,,,0.00,,2013-09-20 13:42:00,
2013-09-20 09:53:00,60.0,59.0,30.14,WSW,255,0.0,0.0,97,0.00,,,0.00,,2013-09-20 13:53:00,
2013-09-20 10:11:00,61.0,60.0,30.14,WSW,256,0.0,1.0,97,0.00,,,0.00,,2013-09-20 14:11:00,
2013-09-20 10:21:00,62.0,61.0,30.14,ESE,110,0.0,1.0,97,0.00,,,0.00,,2013-09-20 14:21:00,
2013-09-20 10:42:00,63.0,62.0,30.14,ESE,110,0.0,1.0,96,0.00,,,0.00,,2013-09-20 14:42:00,
2013-09-20 10:52:00,64.0,63.0,30.13,ESE,108,0.0,2.0,95,0.00,,,0.00,,2013-09-20 14:52:00,
2013-09-20 11:12:00,65.0,63.0,30.13,East,86,0.0,2.0,94,0.00,,,0.00,,2013-09-20 15:12:00,
2013-09-20 11:22:00,66.0,64.0,30.12,East,84,0.0,1.0,92,0.00,,,0.00,,2013-09-20 15:22:00,
2013-09-20 11:44:00,67.0,64.0,30.12,East,84,0.0,2.0,90,0.00,,,0.00,,2013-09-20 15:44:00,
2013-09-20 11:54:00,68.0,63.0,30.12,South,169,0.0,4.0,85,0.00,,,0.00,,2013-09-20 15:54:00,
2013-09-20 12:13:00,69.0,63.0,30.11,SSE,161,0.0,3.0,82,0.00,,,0.00,,2013-09-20 16:13:00,
2013-09-20 12:23:00,70.0,64.0,30.11,South,188,0.0,5.0,80,0.00,,,0.00,,2013-09-20 16:23:00,
2013-09-20 12:42:00,70.0,63.0,30.10,NW,306,0.0,3.0,78,0.00,,,0.00,,2013-09-20 16:42:00,
2013-09-20 12:53:00,70.0,63.0,30.09,WSW,253,0.0,2.0,78,0.00,,,0.00,,2013-09-20 16:53:00,
2013-09-20 13:13:00,71.0,63.0,30.09,SW,225,2.0,6.0,76,0.00,,,0.00,,2013-09-20 17:13:00,
2013-09-20 13:24:00,71.0,62.0,30.09,SW,233,1.0,4.0,74,0.00,,,0.00,,2013-09-20 17:24:00,
2013-09-20 13:42:00,72.0,63.0,30.08,SW,214,1.0,4.0,73,0.00,,,0.00,,2013-09-20 17:42:00,
2013-09-20 13:53:00,72.0,62.0,30.07,West,274,0.0,3.0,72,0.00,,,0.00,,2013-09-20 17:53:00,
2013-09-20 14:12:00,73.0,63.0,30.07,SW,214,1.0,4.0,71,0.00,,,0.00,,2013-09-20 18:12:00,
2013-09-20 14:22:00,73.0,63.0,30.06,SSW,202,1.0,4.0,70,0.00,,,0.00,,2013-09-20 18:22:00,
2013-09-20 14:42:00,74.0,65.0,30.06,South,170,0.0,4.0,73,0.00,,,0.00,,2013-09-20 18:42:00,
2013-09-20 14:52:00,74.0,64.0,30.05,West,278,0.0,7.0,70,0.00,,,0.00,,2013-09-20 18:52:00,
2013-09-20 15:12:00,74.0,63.0,30.05,SSE,165,0.0,4.0,68,0.00,,,0.00,,2013-09-20 19:12:00,
2013-09-20 15:22:00,74.0,64.0,30.03,SSE,158,0.0,1.0,71,0.00,,,0.00,,2013-09-20 19:22:00,
2013-09-20 15:42:00,75.0,63.0,30.02,SSE,166,0.0,2.0,66,0.00,,,0.00,,2013-09-20 19:42:00,
2013-09-20 15:53:00,75.0,63.0,30.01,South,191,0.0,3.0,66,0.00,,,0.00,,2013-09-20 19:53:00,
2013-09-20 16:12:00,75.0,64.0,30.01,South,191,1.0,4.0,68,0.00,,,0.00,,2013-09-20 20:12:00,
2013-09-20 16:22:00,75.0,64.0,30.00,SSW,193,0.0,2.0,69,0.00,,,0.00,,2013-09-20 20:22:00,
2013-09-20 16:42:00,75.0,64.0,29.99,SSW,211,0.0,2.0,69,0.00,,,0.00,,2013-09-20 20:42:00,
2013-09-20 16:52:00,74.0,64.0,29.99,SSW,211,0.0,1.0,71,0.00,,,0.00,,2013-09-20 20:52:00,
2013-09-20 17:12:00,74.0,65.0,29.99,South,185,0.0,2.0,74,0.00,,,0.00,,2013-09-20 21:12:00,
2013-09-20 17:22:00,74.0,65.0,29.99,South,173,0.0,5.0,73,0.00,,,0.00,,2013-09-20 21:22:00,
2013-09-20 17:55:00,73.0,65.0,29.98,South,179,0.0,1.0,76,0.00,,,0.00,,2013-09-20 21:55:00,
2013-09-20 18:14:00,73.0,66.0,29.98,South,179,0.0,0.0,79,0.00,,,0.00,,2013-09-20 22:14:00,
2013-09-20 18:24:00,72.0,65.0,29.98,South,179,0.0,0.0,80,0.00,,,0.00,,2013-09-20 22:24:00,
2013-09-20 18:44:00,72.0,65.0,29.98,South,179,0.0,1.0,80,0.00,,,0.00,,2013-09-20 22:44:00,
2013-09-20 18:53:00,71.0,63.0,29.98,South,179,0.0,1.0,76,0.00,,,0.00,,2013-09-20 22:53:00,
2013-09-20 19:13:00,71.0,63.0,29.98,South,179,0.0,1.0,76,0.00,,,0.00,,2013-09-20 23:13:00,
2013-09-20 19:22:00,70.0,62.0,29.98,South,179,0.0,1.0,77,0.00,,,0.00,,2013-09-20 23:22:00,
2013-09-20 19:53:00,69.0,62.0,29.98,South,179,0.0,0.0,79,0.00,,,0.00,,2013-09-20 23:53:00,
2013-09-20 20:11:00,69.0,63.0,29.98,South,179,0.0,2.0,80,0.00,,,0.00,,2013-09-21 00:11:00,
2013-09-20 20:22:00,69.0,63.0,29.99,South,179,0.0,2.0,81,0.00,,,0.00,,2013-09-21 00:22:00,
2013-09-20 20:42:00,68.0,62.0,29.99,South,179,0.0,0.0,82,0.00,,,0.00,,2013-09-21 00:42:00,
2013-09-20 20:52:00,68.0,62.0,29.99,South,179,1.0,5.0,82,0.00,,,0.00,,2013-09-21 00:52:00,
2013-09-20 21:12:00,68.0,63.0,30.00,SSE,168,0.0,6.0,83,0.00,,,0.00,,2013-09-21 01:12:00,
2013-09-20 21:22:00,68.0,63.0,30.00,SSE,168,0.0,0.0,83,0.00,,,0.00,,2013-09-21 01:22:00,
2013-09-20 21:42:00,67.0,62.0,30.00,SSE,168,0.0,1.0,83,0.00,,,0.00,,2013-09-21 01:42:00,
2013-09-20 21:52:00,67.0,62.0,30.00,South,171,0.0,4.0,84,0.00,,,0.00,,2013-09-21 01:52:00,
2013-09-20 22:12:00,66.0,61.0,30.00,South,171,0.0,1.0,84,0.00,,,0.00,,2013-09-21 02:12:00,
2013-09-20 22:22:00,66.0,61.0,30.00,South,178,2.0,5.0,83,0.00,,,0.00,,2013-09-21 02:22:00,
2013-09-20 22:42:00,66.0,61.0,30.00,SSE,159,0.0,1.0,83,0.00,,,0.00,,2013-09-21 02:42:00,
2013-09-20 22:52:00,66.0,61.0,29.99,SSE,153,0.0,2.0,84,0.00,,,0.00,,2013-09-21 02:52:00,
2013-09-20 23:12:00,65.0,60.0,29.99,SSE,153,0.0,0.0,84,0.00,,,0.00,,2013-09-21 03:12:00,
2013-09-20 23:22:00,65.0,60.0,29.99,SE,127,0.0,1.0,85,0.00,,,0.00,,2013-09-21 03:22:00,
2013-09-20 23:44:00,64.0,60.0,30.00,SE,127,0.0,0.0,86,0.00,,,0.00,,2013-09-21 03:44:00,
2013-09-20 23:55:00,64.0,60.0,29.99,SE,127,0.0,0.0,87,0.00,,,0.00,,2013-09-21 03:55:00,